STARLINK-34065, 63813

Orbit data source: Space-Track

STARLINK-34065, 63813 is a payload satellite owned by SpaceX/Seattle (US) in LEO that was launched on Sun, 04 May 2025 UTC via an FALCON 9 launch vehicle from the Air Force Eastern Test Range (AFETR). Payload-class satellites include a variety of spacecraft equipped with specific instruments for various scientific and technological missions. These include communications satellites like Starlink; space stations such as the ISS; scientific satellites like the Hubble; Earth observation satellites from companies like Planet Labs, Umbra, and HawkEye 360; GPS; miniature CubeSats for education and research; and military/defense satellites.

Loading next visibility...
Identifier
63813, 2025-092K
Orbit
LEO
Last TLE update
16 hours ago
Origin
Manufacturer
SpaceX/Seattle
Mission
Operational spacecraft
Bus & Motor
STARLINK V2MO, Unknown motor
Mass
575 kg wet, ~530 kg dry
Launch date (UTC)
2025-05-04 (1 week ago)
Launch vehicle
FALCON 9
Launch site
Air Force Eastern Test Range (AFETR)
Object type
Payload
Rocket body
Debris
Shape & HBR
Unknown
Radar Cross Section
Medium (>0.1 m² and <1 m²)

Expand to show TLE details & history

TLE from 16 hours ago
0 STARLINK-34065
1 63813U 25092K   25132.91668981 -.00906386  00000-0 -33463-2 0  9995
2 63813  43.0005  80.1563 0001594 260.7841  51.8029 15.89254629  2463
Epoch: 2025-05-12T22:00Z
Definitive object data (Epoch: 2025-05-12T22:00:01.999Z)
Latitude
-30.31288°
Longitude
-159.34075°
Altitude
311.824 km
Speed
7.722 km/s
True Right ascension
02h 46m 21s
True Declination
-30° 09' 12"
Sunlit
Object was in daylight at TLE epoch
Visualization TLE readout
Latitude
-37.09588°
Longitude
108.75765°
Altitude
317.751 km
Speed
7.719 km/s
Apparent Right ascension
16h 16m 52s
Apparent Declination
-70° 55' 01"
Sunlit
Object is in full shadow
Visualization observer readout
Local Sidereal Time
22:43:59
Azimuth
204.879° SW
Elevation
-39.494°
Doppler factor
1
Orbital elements
Apogee altitude
307.434 km
Perigee altitude
305.303 km
Semi-major axis
6,684.505 km
Eccentricity
0.0001594
Inclination
43.0005°
RAAN
80.1563°
Arg. of periapsis
260.7841°
True anomaly
51.81726°
Mean anomaly
51.8029°
Eccentric anomaly
51.81008°
Mean motion
3.97136 °/min
BSTAR
-0.0033463
Orbital period
90.65 mins
Loading maneuver chart data...
Loading SW <> Apogee altitude chart data...
Loading historical data...
Loading historical data...
Loading historical data...
Loading historical data...
Loading historical data...
Loading historical data...
Loading historical data...

STARLINK-34065 Visibility forecast

Observer location: undefined°, undefined°

Span
Click to sort rows by Start time (UTC) header in descending order
Start Az.
Max El. time (UTC)
Max El. Az.
Max El.
End time (UTC)
End Az.
5 mins2025-05-14 00:05:05.718Z232.698° WSW2025-05-14 00:07:05.718Z194.982° SSW34.187°2025-05-14 00:10:05.718Z79.018° E
|